星链-11137 [DTC] (STARLINK-11137 [DTC] )

导读

STARLINK-11137是美国太空探索技术公司(SpaceX)星链(Starlink)星座的成员,于2024年6月8日发射入轨。作为星链低轨互联网星座扩容卫星,它为全球偏远地区、海上及航空移动场景提供高速低延迟宽带互联网接入服务,进一步完善了星座覆盖密度与服务能力,助力SpaceX推进全球卫星互联网组网布局。

Basic Information
目录编号:
60050
目录名称:
STARLINK-11137
国际标识:
2024-112N
轨道中心:
EARTH
卫星名称:
星链-11137 [DTC]
卫星全名:
星链-11137 [DTC] (STARLINK-11137 [DTC] )
卫星状态:
在轨 (已飞行825 天)
发射日期:
2024-06-08 UTC
国别 :
美国 (US)
星等 :
--
This satellite is enrolled in the Space Conjunction Data Service (SCDS) and the current flight risk assessment level is: No High Risk
Orbit Information
数据来源 国际轨道数据 AOE轨道数据
星历时间 2026-09-11T02:25:36+0800
15小时前
查看轨道信息
2026-09-10T11:00:00+0800
1天前
查看轨道信息
半长轴 6737.915km 6737.801km
偏心率 0.0000828 0.0001692
轨道倾角 53.159° 53.158°
近地点辐角 110.920° 83.978°
升交点赤经 73.603° 76.774°
平近点角 249.191° 241.760°
近地点 359.22km 358.523km
远地点 360.336km 360.805km
周期 91.738分钟 91.735分钟
每日圈数 15.696921 15.697321
Detailed Information
固有亮度:
5
最大亮度:
0.3
卫星平台:
Starlink v2.0 mini
覆盖范围:
全球
运营商:
太空探索技术公司
运营商所在国:
美国
制造商(研发单位):
太空探索技术公司
制造商所在国:
美国
使用方式:
暂无
Satellite Introduction
星链(Starlink)计划是由太空探索技术公司(SpaceX)提出的一个巨型低轨卫星互联网星座项目,计划在2019年至2024年间在太空搭建由约1.2万颗卫星组成的“星链”网络,其中1584颗将部署在地球上空550千米处的近地轨道,并从2020年开始工作。该卫星仍在工作。
2D Orbit Map
3D Orbit Map
Orbit Altitude Analysis Chart
Orbit Inclination Analysis Chart
Orbit Comprehensive Analysis Chart
View Comprehensive Chart
Miss Distance Evolution Trend with All Objects
Collision Probability Evolution Trend with All Objects